Regional Weather Roundup
Issued by NWS

Home | Current Version | Previous Version | Text Only | Print | Product List | Glossary Off
Versions: 1 2 3 4 5 6 7 8 9 10 11 12 13 14 15 16 17 18 19 20 21 22 23 24 25 26 27 28 29 30 31 32 33 34 35 36 37 38 39 40 41 42 43 44 45 46 47 48 49 50

000
ASUS43 KDMX 260407
RWRIA

WEATHER ROUNDUP FOR IOWA
NATIONAL WEATHER SERVICE DES MOINES IA
1000 PM CST TUE NOV 25 2014

NOTE: "FAIR" INDICATES FEW OR NO CLOUDS BELOW 12,000 FEET WITH NO
SIGNIFICANT WEATHER AND/OR OBSTRUCTIONS TO VISIBILITY.

* - THESE STATIONS ARE NOT NWS STATIONS...THUS NOT UNDER NWS
QUALITY CONTROL.  THEY ALSO DO NOT REPORT WEATHER SUCH
AS PRECIPITATION OR FOG.

IAZ001>003-012>014-020>022-031>034-043>046-260500-
   NORTHWEST IOWA

CITY           SKY/WX    TMP DP  RH WIND       PRES   REMARKS
CARROLL *      CLOUDY    32  21  64 S9        29.93S WCI  24
CHEROKEE *     LGT SNOW  32  27  80 S9        29.89S WCI  24
DENISON *      CLOUDY    34  21  60 S14       29.88F WCI  24
LE MARS *      LGT SNOW  34  32  93 SE12      29.85F WCI  25
ORANGE CITY *  LGT SNOW  30  28  93 SE8       29.85F VSB 1   WCI  23
SHELDON *      LGT SNOW  30  27  86 SE17      29.85F VSB 1   WCI  18
SIOUX CITY     LGT RAIN  35  32  88 SE8       29.85F WCI  29
SPENCER        CLOUDY    31  17  56 SE13      29.90F WCI  21
STORM LAKE *   MIX PCPN  30  21  69 S14       29.90S WCI  20
$$

IAZ055>058-069>071-079>083-090>094-260500-
   SOUTHWEST IOWA

CITY           SKY/WX    TMP DP  RH WIND       PRES   REMARKS
ATLANTIC *     CLOUDY    36  21  55 S13       29.93F WCI  27
AUDUBON *      PTCLDY    34  18  51 S10G16    29.93F WCI  26
CLARINDA *     CLOUDY    36  21  55 S10       29.97F WCI  28
COUNCIL BLFS * CLOUDY    37  25  60 S10       29.88F WCI  30
CRESTON *      CLOUDY    32  19  59 S13G18    29.98S WCI  22
HARLAN  *      CLOUDY    36  21  55 S13G20    29.95S WCI  27
LAMONI         MOCLDY    30  16  56 SE12      30.01F WCI  20
RED OAK *      CLOUDY    37  21  52 S12       29.94F WCI  30
SHENANDOAH *   CLOUDY    37  23  56 S16       29.95S WCI  28
$$

IAZ047>049-059>061-072>074-084-260500-
   CENTRAL IOWA

CITY           SKY/WX    TMP DP  RH WIND       PRES   REMARKS
AMES           PTCLDY    26  16  65 SE10      30.01F WCI  16
ANKENY *       PTCLDY    28  16  59 SE7       30.02F WCI  21
CHARITON *     CLOUDY    28  18  64 S10       30.03F WCI  19
DES MOINES     CLOUDY    30  14  51 S10       30.02F WCI  21
GRINNELL*      PTCLDY    25  19  80 SE9       30.06S WCI  15
KNOXVILLE *    MOCLDY    27  16  63 SE9       30.03S WCI  17
MARSHALLTOWN   PTCLDY    25  17  72 SE12      30.03F WCI  14
PELLA *        CLEAR     28  19  69 SE8       30.06F WCI  20
PERRY *        CLOUDY    32  21  64 SE12      29.97F WCI  23
$$

IAZ004>006-015-016-023>025-035-036-260500-
   NORTH CENTRAL IOWA

CITY           SKY/WX    TMP DP  RH WIND       PRES   REMARKS
ALGONA *       CLOUDY    28  16  59 SE17G25   29.95F WCI  16
CLARION *      MOCLDY    25  18  74 SE16      29.98F WCI  12
ESTHERVILLE    CLOUDY    27  16  63 SE16      29.92F WCI  15
FORT DODGE *   CLOUDY    28  14  54 SE9       29.97S WCI  20
MASON CITY     MOCLDY    20  16  84 SE10      30.02S WCI   9
FOREST CITY *  CLOUDY    27  19  74 SE10      29.99S WCI  17
IOWA FALLS *     N/A     23  18  80 SE9       30.02S WCI  13
$$

IAZ007>011-017>019-026>030-037>042-050>054-066-260500-
   NORTHEAST IOWA

CITY           SKY/WX    TMP DP  RH WIND       PRES   REMARKS
CEDAR RAPIDS   CLEAR     18  16  92 SE6       30.10S WCI  10
CHARLES CITY * PTCLDY    19  14  79 SE9       30.05S WCI   9
CLINTON *      CLEAR     16  12  86 S5        30.19R WCI   9
DECORAH *      CLOUDY    18  12  79 S7        30.06S WCI   8
DUBUQUE        CLEAR     12  10  92 SW7       30.13R WCI   1
MONTICELLO *   CLEAR     18  16  93 SE6       30.12F WCI   9
OELWEIN *      PTCLDY    18  14  86 SE9       30.08R WCI   6
WATERLOO       MOCLDY    21  17  84 SE10      30.07S WCI  10
$$

IAZ064-065-067-068-078-260500-
   EAST CENTRAL IOWA

CITY           SKY/WX    TMP DP  RH WIND       PRES   REMARKS
DAVENPORT      CLEAR     16  10  77 SE3       30.17R
IOWA CITY      CLEAR     18  16  92 SE6       30.14S WCI  10
MT. PLEASANT * CLEAR     21  18  86 SE7       30.13S WCI  13
MUSCATINE *    CLEAR     18  16  93 CALM      30.16F
QUAD CITIES    CLEAR     16  12  84 CALM      30.17R
$$

IAZ062-063-075>077-085>089-095>099-260500-
   SOUTHEAST IOWA

CITY           SKY/WX    TMP DP  RH WIND       PRES   REMARKS
BURLINGTON     CLEAR     23  19  85 SE6       30.15R WCI  16
FAIRFIELD *    CLEAR     21  18  86 SE7       30.11S WCI  13
FORT MADISON * CLEAR     25  21  86 SE6       30.14F WCI  18
KEOKUK *       CLEAR     25  21  86 SE7       30.14S WCI  17
OSKALOOSA *      N/A     23  19  86 SE9       30.08F WCI  13
CENTERVILLE *    N/A     27  18  69 SE7       30.07F WCI  19
OTTUMWA        CLEAR     25  18  74 SE9       30.08F WCI  15
WASHINGTON *   CLEAR     21  21 100 SE10      30.12S WCI  10
$$

ABBREVIATIONS USED IN REMARKS
   TC - TEMPERATURES IN CELSIUS
  WCI - WIND CHILL INDEX
   HX - HEAT INDEX
  VSB - VISIBILITY
$$




USA.gov is the U.S. government's official web portal to all federal, state and local government web resources and services.